When you browse on this site, cookies collect data to enhance your experience and personalize the content and advertising you see.
Visit our Privacy Policy to learn more. By continuing to use the site, you agree to this use of cookies and data.
  • In Lithuania
  • List of Countries
  • For 7 days
  • Water Temperature
  • Satellite Maps
  • Weather Map
  • Weather Widgets
  • user-avatar
    Login

    Hourly Weather Escaldes-Engordany

    Today, 18 February, Monday

    Time Temperature Precipitation Wind Pressure Humidity
    00:00 -1°C° 0 mm 2 mps 639 mmHg 54%
    01:00 -1°C° 0 mm 2 mps 638 mmHg 54%
    02:00 -1°C° 0 mm 2 mps 638 mmHg 53%
    03:00 -1°C° 0 mm 2 mps 638 mmHg 52%
    04:00 -1°C° 0 mm 2 mps 638 mmHg 50%
    05:00 -1°C° 0 mm 2 mps 638 mmHg 47%
    06:00 -1°C° 0 mm 2 mps 638 mmHg 45%
    07:00 +2°C° 0 mm 2 mps 638 mmHg 42%
    08:00 +4°C° 0 mm 2 mps 639 mmHg 39%
    09:00 +6°C° 0 mm 2 mps 640 mmHg 36%
    10:00 +7°C° 0 mm 2 mps 640 mmHg 33%
    11:00 +8°C° 0 mm 2 mps 641 mmHg 30%
    12:00 +10°C° 0 mm 2 mps 641 mmHg 27%
    13:00 +9°C° 0 mm 2 mps 641 mmHg 29%
    14:00 +9°C° 0 mm 2 mps 640 mmHg 30%
    15:00 +9°C° 0 mm 2 mps 640 mmHg 31%
    16:00 +6°C° 0 mm 2 mps 639 mmHg 38%
    17:00 +5°C° 0 mm 1 mps 638 mmHg 45%
    18:00 +3°C° 0 mm 1 mps 637 mmHg 52%
    19:00 +2°C° 0 mm 1 mps 638 mmHg 49%
    20:00 +2°C° 0 mm 1 mps 638 mmHg 46%
    21:00 +2°C° 0 mm 1 mps 638 mmHg 43%
    22:00 +2°C° 0 mm 1 mps 638 mmHg 42%
    23:00 +2°C° 0 mm 1 mps 638 mmHg 41%

    Tomorrow, 19 February, Tuesday

    Time Temperature Precipitation Wind Pressure Humidity
    00:00 +2°C° 0 mm 1 mps 638 mmHg 40%
    01:00 +1°C° 0 mm 1 mps 638 mmHg 39%
    02:00 +1°C° 0 mm 1 mps 638 mmHg 37%
    03:00 +1°C° 0 mm 1 mps 638 mmHg 36%
    04:00 +1°C° 0 mm 1 mps 638 mmHg 34%
    05:00 +1°C° 0 mm 1 mps 638 mmHg 33%
    06:00 +1°C° 0 mm 1 mps 638 mmHg 31%
    07:00 +3°C° 0 mm 1 mps 639 mmHg 30%
    08:00 +4°C° 0 mm 0 mps 640 mmHg 30%
    09:00 +6°C° 0 mm 0 mps 641 mmHg 29%
    10:00 +7°C° 0 mm 0 mps 641 mmHg 29%
    11:00 +9°C° 0 mm 1 mps 641 mmHg 29%
    12:00 +10°C° 0 mm 1 mps 642 mmHg 29%
    13:00 +10°C° 0 mm 1 mps 641 mmHg 31%
    14:00 +9°C° 0 mm 1 mps 641 mmHg 34%
    15:00 +9°C° 0 mm 1 mps 640 mmHg 36%
    16:00 +7°C° 0 mm 1 mps 639 mmHg 45%
    17:00 +4°C° 0 mm 0 mps 639 mmHg 54%
    18:00 +1°C° 0 mm 0 mps 638 mmHg 63%
    19:00 +1°C° 0 mm 0 mps 638 mmHg 62%
    20:00 +1°C° 0 mm 0 mps 639 mmHg 61%
    21:00 +1°C° 0 mm 0 mps 639 mmHg 60%
    22:00 +1°C° 0 mm 0 mps 639 mmHg 58%
    23:00 +1°C° 0 mm 0 mps 639 mmHg 57%

    Day after tomorrow, 20 February, Wednesday

    Time Temperature Precipitation Wind Pressure Humidity
    00:00 +1°C° 0 mm 0 mps 639 mmHg 55%
    01:00 +2°C° 0 mm 1 mps 639 mmHg 55%
    02:00 +2°C° 0 mm 1 mps 639 mmHg 54%
    03:00 +2°C° 0 mm 1 mps 639 mmHg 53%
    04:00 +2°C° 0 mm 1 mps 639 mmHg 53%
    05:00 +2°C° 0 mm 1 mps 639 mmHg 52%
    06:00 +2°C° 0 mm 1 mps 639 mmHg 52%
    07:00 +3°C° 0 mm 0 mps 640 mmHg 48%
    08:00 +4°C° 0 mm 0 mps 641 mmHg 43%
    09:00 +6°C° 0 mm 0 mps 642 mmHg 39%
    10:00 +8°C° 0 mm 0 mps 643 mmHg 37%
    11:00 +10°C° 0 mm 1 mps 643 mmHg 34%
    12:00 +11°C° 0 mm 1 mps 643 mmHg 32%
    13:00 +11°C° 0 mm 1 mps 643 mmHg 35%
    14:00 +10°C° 0 mm 1 mps 643 mmHg 37%
    15:00 +10°C° 0 mm 1 mps 643 mmHg 39%
    16:00 +7°C° 0 mm 0 mps 642 mmHg 49%
    17:00 +5°C° 0 mm 0 mps 641 mmHg 58%
    18:00 +2°C° 0 mm 0 mps 641 mmHg 67%
    19:00 +2°C° 0 mm 0 mps 641 mmHg 68%
    20:00 +2°C° 0 mm 0 mps 641 mmHg 68%
    21:00 +2°C° 0 mm 0 mps 642 mmHg 68%
    22:00 +2°C° 0 mm 0 mps 642 mmHg 68%
    23:00 +3°C° 0 mm 1 mps 642 mmHg 67%

    21 February, Thursday

    Time Temperature Precipitation Wind Pressure Humidity
    00:00 +3°C° 0 mm 1 mps 642 mmHg 67%
    01:00 +3°C° 0 mm 1 mps 642 mmHg 66%
    02:00 +2°C° 0 mm 1 mps 642 mmHg 66%
    03:00 +2°C° 0 mm 1 mps 642 mmHg 66%
    04:00 +2°C° 0 mm 1 mps 642 mmHg 65%
    05:00 +2°C° 0 mm 1 mps 642 mmHg 64%
    06:00 +2°C° 0 mm 1 mps 642 mmHg 63%
    07:00 +4°C° 0 mm 1 mps 643 mmHg 57%
    08:00 +5°C° 0 mm 0 mps 644 mmHg 51%
    09:00 +7°C° 0 mm 0 mps 645 mmHg 44%
    10:00 +10°C° 0 mm 1 mps 646 mmHg 42%
    11:00 +11°C° 0 mm 1 mps 646 mmHg 39%
    12:00 +12°C° 0 mm 1 mps 647 mmHg 36%
    13:00 +12°C° 0 mm 1 mps 646 mmHg 38%
    14:00 +12°C° 0 mm 1 mps 646 mmHg 40%
    15:00 +12°C° 0 mm 1 mps 646 mmHg 43%
    16:00 +9°C° 0 mm 1 mps 645 mmHg 52%
    17:00 +7°C° 0 mm 1 mps 644 mmHg 61%
    18:00 +4°C° 0 mm 0 mps 644 mmHg 71%
    19:00 +5°C° 0 mm 1 mps 644 mmHg 71%
    20:00 +4°C° 0 mm 1 mps 644 mmHg 71%
    21:00 +4°C° 0 mm 1 mps 645 mmHg 71%
    22:00 +4°C° 0 mm 1 mps 645 mmHg 69%
    23:00 +4°C° 0 mm 1 mps 645 mmHg 68%

    22 February, Friday

    Time Temperature Precipitation Wind Pressure Humidity
    00:00 +4°C° 0 mm 1 mps 644 mmHg 66%
    01:00 +4°C° 0 mm 1 mps 644 mmHg 59%
    02:00 +4°C° 0 mm 1 mps 644 mmHg 52%
    03:00 +3°C° 0 mm 2 mps 644 mmHg 45%
    04:00 +3°C° 0 mm 2 mps 644 mmHg 41%
    05:00 +3°C° 0 mm 2 mps 644 mmHg 36%
    06:00 +3°C° 0 mm 2 mps 644 mmHg 32%
    07:00 +5°C° 0 mm 2 mps 645 mmHg 32%
    08:00 +8°C° 0 mm 1 mps 646 mmHg 32%
    09:00 +11°C° 0 mm 1 mps 647 mmHg 32%
    10:00 +12°C° 0 mm 1 mps 647 mmHg 30%
    11:00 +14°C° 0 mm 1 mps 647 mmHg 28%
    12:00 +15°C° 0 mm 1 mps 648 mmHg 26%
    13:00 +15°C° 0 mm 1 mps 648 mmHg 29%
    14:00 +15°C° 0 mm 1 mps 647 mmHg 33%
    15:00 +14°C° 0 mm 1 mps 647 mmHg 36%
    16:00 +12°C° 0 mm 1 mps 646 mmHg 45%
    17:00 +9°C° 0 mm 1 mps 646 mmHg 55%
    18:00 +7°C° 0 mm 1 mps 645 mmHg 65%
    19:00 +6°C° 0 mm 1 mps 645 mmHg 67%
    20:00 +6°C° 0 mm 1 mps 645 mmHg 68%
    21:00 +5°C° 0 mm 1 mps 646 mmHg 70%
    22:00 +5°C° 0 mm 1 mps 646 mmHg 69%
    23:00 +4°C° 0 mm 2 mps 646 mmHg 68%

    23 February, Saturday

    Time Temperature Precipitation Wind Pressure Humidity
    00:00 +4°C° 0 mm 2 mps 646 mmHg 67%
    01:00 +3°C° 0 mm 2 mps 646 mmHg 63%
    02:00 +3°C° 0 mm 2 mps 646 mmHg 60%
    03:00 +4°C° 0 mm 1 mps 646 mmHg 57%
    04:00 +4°C° 0 mm 1 mps 646 mmHg 55%
    05:00 +4°C° 0 mm 1 mps 646 mmHg 53%
    06:00 +4°C° 0 mm 1 mps 646 mmHg 51%
    07:00 +4°C° 0 mm 2 mps 647 mmHg 48%
    08:00 +6°C° 0 mm 2 mps 648 mmHg 44%
    09:00 +8°C° 0 mm 2 mps 649 mmHg 41%
    10:00 +9°C° 0 mm 2 mps 649 mmHg 39%
    11:00 +12°C° 0 mm 2 mps 650 mmHg 36%
    12:00 +13°C° 0 mm 2 mps 650 mmHg 34%
    13:00 +13°C° 0 mm 2 mps 650 mmHg 35%
    14:00 +13°C° 0 mm 2 mps 650 mmHg 37%
    15:00 +13°C° 0 mm 2 mps 649 mmHg 38%
    16:00 +9°C° 0 mm 2 mps 648 mmHg 47%
    17:00 +8°C° 0 mm 1 mps 648 mmHg 56%
    18:00 +6°C° 0 mm 1 mps 647 mmHg 65%
    19:00 +5°C° 0 mm 1 mps 647 mmHg 66%
    20:00 +5°C° 0 mm 1 mps 647 mmHg 66%
    21:00 +4°C° 0 mm 1 mps 647 mmHg 67%
    22:00 +4°C° 0 mm 1 mps 647 mmHg 64%
    23:00 +4°C° 0 mm 1 mps 647 mmHg 61%
    Show more